Temperature
17 16 15 15 14 14 14 13 13 13 12 12 12 12 11 11 11 11 11 11 11 11 11 11 11 11 12 12 12 12 12 12 12 12 12 12 12 12 13 13 14 14 14
18 17 16 15 15 14 14 13 13 13 12 12 12 11 11 11 11 11 11 11 11 11 11 11 11 12 12 12 12 11 11 12 12 12 12 12 12 12 12 13 13 13 13
18 17 16 15 15 14 14 13 13 13 12 12 11 11 11 11 11 11 11 11 11 11 11 11 11 11 12 11 11 11 11 11 12 12 12 12 11 11 12 12 12 12 13
18 18 17 16 15 14 14 13 13 12 12 12 11 11 11 11 11 11 11 11 11 11 11 11 11 12 12 11 11 11 11 11 12 12 12 12 11 11 11 11 11 12 12
18 18 17 16 15 15 14 13 13 12 12 12 11 11 11 11 11 11 11 11 11 11 11 11 12 12 12 12 11 11 11 12 12 12 11 11 11 10 11 11 11 11 11
18 18 17 16 16 15 14 13 13 12 12 11 11 11 11 11 11 11 11 11 11 11 11 11 12 12 12 12 11 11 11 12 12 11 11 11 10 10 10 11 11 11 11
19 18 17 16 16 15 14 13 13 12 12 11 11 11 11 11 11 11 11 11 11 11 11 11 11 12 12 12 11 11 11 11 11 11 11 11 11 10 10 11 11 11 11
19 18 17 16 15 15 14 13 13 12 12 11 11 11 10 11 11 11 12 12 12 12 12 12 12 12 11 11 11 11 11 11 11 11 11 11 11 11 11 11 11 11 11
18 17 17 16 15 14 14 13 12 12 12 11 11 11 10 10 11 11 11 11 11 11 11 11 11 11 11 11 11 11 11 11 11 11 11 11 11 11 11 11 11 11 11
17 17 16 16 15 14 13 13 12 12 11 11 11 10 10 10 10 10 11 11 11 11 11 11 11 11 11 11 11 11 11 11 11 11 11 11 11 11 10 11 11 11 11
16 16 15 15 15 14 13 12 12 11 11 11 10 10 10 10 10 10 10 10 11 11 11 11 11 11 11 11 11 11 10 10 10 10 10 10 10 10 10 10 10 10 10
16 16 15 15 14 14 13 12 11 11 11 10 10 10 10 10 10 10 10 10 10 10 10 10 10 10 10 10 10 10 10 10 10 10 10 10 10 10 10 10 10 10 10
17 16 15 14 14 13 13 12 11 11 10 10 10 10 10 9 9 9 9 9 9 9 9 9 9 10 10 10 10 10 10 10 10 9 9 9 9 9 9 9 9 9 9
16 16 15 14 14 13 13 12 11 11 10 10 10 9 9 9 9 9 9 9 8 8 9 9 9 9 9 9 9 9 9 9 9 9 9 9 9 9 9 9 9 9 8
16 16 15 14 14 13 12 12 11 11 10 10 10 9 9 9 9 8 8 8 8 8 8 8 8 8 8 8 8 8 8 8 8 8 8 8 8 9 9 9 8 8 8
16 16 15 14 14 13 12 12 11 11 10 10 9 9 9 9 8 8 8 8 8 8 7 7 8 7 7 7 7 7 7 7 7 8 8 8 8 8 8 8 8 8 7
17 16 15 14 13 13 12 11 11 10 10 10 9 9 9 9 8 8 8 8 8 7 7 7 7 7 7 7 7 7 7 7 7 7 8 8 8 8 8 8 8 7 7
16 15 15 14 13 12 12 11 11 10 10 10 9 9 9 9 8 8 8 8 8 7 7 7 7 7 7 7 6 6 7 7 7 7 8 8 8 8 8 8 8 7 7
16 15 14 14 13 12 12 11 11 10 10 9 9 9 9 9 8 8 8 8 7 7 7 7 7 6 6 6 6 6 7 7 7 8 8 8 8 8 8 8 8 7 7
15 15 14 13 13 12 11 11 10 10 10 9 9 9 9 8 8 8 8 8 7 7 7 7 7 6 6 6 6 6 6 7 7 8 8 8 8 8 7 7 7 7 7
15 14 14 13 13 12 11 11 10 10 10 9 9 9 9 8 8 8 8 8 7 7 7 7 6 6 6 6 5 6 7 7 8 7 7 7 7 7 6 6 6 6 6
14 14 13 13 12 12 11 11 10 10 10 10 9 9 9 9 8 8 8 7 7 7 7 7 6 6 6 6 5 4 4 5 6 6 6 6 6 6 6 6 5 5 5
14 14 13 13 12 12 11 11 11 10 10 10 9 9 9 9 8 8 8 7 7 7 7 6 6 6 6 6 5 4 3 3 3 4 5 5 5 5 5 5 5 5 5
14 13 13 12 12 12 11 11 11 11 10 10 10 9 9 9 8 8 8 7 7 7 7 6 6 6 5 5 5 5 4 3 2 2 3 4 4 4 4 4 4 5 4
13 13 12 12 12 12 11 11 11 11 10 10 9 9 9 8 8 8 7 7 7 7 6 6 6 6 5 5 5 4 4 3 3 2 1 2 3 3 3 3 3 4 4
12 12 12 12 12 12 11 11 11 11 10 10 9 9 9 8 8 7 7 7 7 6 6 6 6 5 5 5 4 4 3 3 3 2 1 1 1 2 2 2 3 3 3
Wind_Speed
7 16 20 19 18 16 15 15 14 13 13 13 14 14 14 14 14 14 14 14 14 14 15 15 15 15 16 16 15 16 16 17 18 18 18 17 17 17 17 16 16 16 18
12 22 23 21 19 17 16 15 14 14 13 14 14 14 14 14 13 13 13 13 13 14 14 14 14 15 14 14 14 14 14 15 15 16 16 16 16 16 16 16 15 14 16
16 23 24 22 20 18 17 16 14 14 14 14 13 13 13 13 13 12 12 12 12 12 13 13 13 13 13 13 12 13 13 13 14 14 15 15 13 14 14 14 14 14 14
21 22 23 23 21 19 18 16 15 14 14 13 13 13 12 12 12 11 11 11 11 11 12 12 12 12 12 11 11 11 12 12 13 13 14 14 12 12 13 13 12 12 12
20 22 23 24 22 20 19 17 15 14 14 13 12 12 12 11 11 11 11 10 10 10 11 11 11 11 10 10 9 10 11 12 13 13 13 13 11 10 11 11 11 11 11
16 22 24 24 22 21 19 18 16 15 14 13 12 12 11 11 10 10 10 9 9 9 9 9 9 9 9 8 8 9 10 11 12 12 11 11 10 9 9 9 9 9 9
14 21 24 25 23 21 20 19 17 15 14 13 12 12 11 10 9 9 8 8 8 8 8 8 7 7 7 7 6 7 8 9 10 9 8 8 7 7 7 7 7 7 7
16 20 23 25 23 22 20 19 17 16 15 14 13 12 11 10 9 8 7 7 6 6 6 6 6 5 5 5 5 5 6 7 7 6 5 5 5 5 5 5 5 5 5
17 18 19 22 22 22 21 20 18 17 15 14 13 12 11 10 9 8 7 6 5 4 4 3 3 3 3 3 4 4 5 5 5 3 3 3 4 4 4 4 4 4 4
11 13 16 19 20 20 20 20 19 17 16 15 13 12 12 11 9 8 7 6 5 4 3 2 1 0 1 2 3 4 5 5 4 4 4 5 6 6 6 6 6 6 6
12 10 13 15 17 18 18 19 19 18 17 16 14 14 13 11 10 9 9 8 6 5 4 3 3 3 3 4 5 5 5 5 5 6 7 8 8 9 9 9 9 9 9
14 13 11 12 15 17 16 17 17 17 16 15 14 14 13 12 11 10 10 10 9 7 6 5 6 5 5 5 7 8 8 8 8 9 10 11 12 12 12 12 12 13 13
15 15 14 12 16 15 13 13 13 14 14 14 15 15 14 12 11 10 10 10 9 8 7 7 7 7 7 8 9 10 11 11 11 12 12 12 14 15 15 15 15 16 16
13 16 15 13 13 14 14 12 12 11 11 12 14 15 13 10 9 9 9 10 10 9 8 8 9 10 10 11 12 12 13 13 14 15 15 15 16 17 18 18 18 18 18
13 15 15 13 12 13 12 11 12 11 12 13 14 15 14 10 8 9 9 11 11 11 10 9 10 10 10 11 11 11 12 14 16 16 17 18 19 20 21 21 21 21 21
12 14 15 15 13 13 10 9 10 12 13 13 13 14 15 13 10 9 8 9 10 12 12 11 11 9 9 9 9 10 12 14 15 17 18 20 21 22 23 23 23 23 23
11 12 14 15 12 12 10 10 11 12 12 11 12 14 14 13 12 10 7 7 10 12 12 10 9 8 6 6 6 9 10 12 13 16 18 19 21 22 24 24 25 25 24
10 11 12 13 12 11 9 10 10 11 11 10 12 12 13 13 13 10 7 7 10 9 8 5 4 4 5 5 5 5 7 9 12 15 17 18 19 19 21 24 25 25 25
9 11 11 11 12 11 9 9 9 9 8 9 9 10 11 11 11 9 7 7 7 6 4 3 3 3 4 5 5 6 5 6 9 13 14 17 18 19 20 22 24 25 25
8 9 10 10 10 9 7 5 5 4 4 5 6 7 8 8 7 7 5 5 5 3 2 2 3 3 3 4 5 6 6 7 7 8 11 14 15 17 18 19 20 21 23
8 9 9 10 9 8 6 5 5 4 2 2 3 4 5 5 5 5 4 4 3 2 3 3 2 3 3 2 3 5 6 6 6 6 6 7 10 14 15 15 16 17 18
7 8 8 9 9 8 6 5 4 4 2 2 1 1 2 2 3 3 3 2 2 2 2 2 2 2 2 1 1 3 5 5 4 4 5 5 6 8 9 12 13 15 17
7 8 8 8 9 8 7 6 5 4 3 2 1 0 0 1 2 3 3 3 2 2 2 3 3 3 3 2 3 3 3 4 5 5 5 5 5 5 6 10 13 16 18
7 7 8 8 8 8 8 7 7 5 3 3 2 1 1 0 1 2 2 2 2 1 2 3 3 3 3 4 3 4 6 5 5 5 4 5 7 7 8 8 11 16 19
7 7 8 8 8 7 7 8 8 5 3 2 2 1 1 2 1 0 1 1 1 1 2 3 3 3 3 4 4 4 4 4 6 7 10 6 5 6 7 8 10 14 18
7 7 8 9 7 7 8 8 8 8 6 5 3 2 0 1 1 1 0 1 2 2 3 4 4 5 5 5 5 5 5 5 5 6 9 11 10 8 7 7 8 11 17
Wind_Direction
189 180 170 161 157 152 145 137 130 126 121 116 112 108 103 98 94 91 87 82 78 74 72 72 72 71 70 69 68 67 66 63 60 59 60 63 65 65 63 60 56 51 53
163 172 167 163 159 156 151 142 134 129 126 120 115 112 107 103 97 93 88 85 81 77 74 74 74 73 71 70 69 69 69 67 65 61 55 53 62 65 63 60 59 57 56
155 166 165 164 161 158 153 145 139 134 129 124 119 116 112 107 101 96 91 88 84 81 78 76 74 74 73 71 69 68 67 66 67 63 53 42 50 63 63 61 59 57 55
157 164 164 165 163 160 155 150 146 140 136 131 127 122 118 113 107 101 96 93 90 86 83 80 78 76 74 73 70 66 64 66 67 61 50 40 41 60 61 60 60 58 56
158 163 165 166 165 162 158 155 151 147 141 138 135 128 123 117 112 107 102 98 94 91 88 84 81 78 76 75 72 67 65 67 66 61 52 40 36 57 58 55 55 56 56
157 162 167 167 166 165 162 158 156 153 148 145 142 136 130 125 119 113 108 103 100 97 92 88 84 81 79 76 72 66 65 65 60 59 53 40 31 52 56 53 51 50 50
158 163 170 169 169 168 165 162 161 159 157 153 150 145 140 134 128 123 118 113 108 103 98 92 87 84 79 75 70 60 56 57 56 55 48 37 29 42 45 44 43 42 41
161 165 171 171 171 170 169 167 166 165 162 160 157 154 150 145 140 138 133 127 119 110 103 96 89 83 75 65 56 47 43 45 52 51 41 26 20 23 28 24 19 18 20
163 165 171 173 173 174 173 171 170 170 169 167 166 163 161 157 155 153 149 144 139 131 119 104 89 75 59 42 31 23 21 29 36 22 359 332 330 336 342 342 336 335 337
164 167 170 171 172 174 176 175 174 175 175 174 173 170 168 168 170 169 167 169 169 167 165 162 148 17 352 344 344 345 349 357 356 334 315 295 293 299 305 303 301 301 300
169 172 170 169 171 174 176 178 177 179 180 180 178 175 173 174 177 180 180 190 196 199 209 226 248 270 285 296 303 309 317 317 311 303 295 290 288 289 292 292 290 289 288
177 179 175 173 172 174 179 181 180 180 183 182 179 177 177 179 183 189 196 205 212 217 228 246 258 268 277 278 285 290 286 286 282 281 281 284 287 288 289 289 286 285 284
179 180 180 177 174 174 177 176 178 179 181 180 180 181 182 187 192 200 206 215 219 223 232 251 267 270 266 266 270 273 271 269 268 270 274 280 286 289 290 289 286 284 282
177 183 181 179 176 177 176 177 177 177 180 182 186 187 185 188 194 200 203 208 212 219 228 243 254 260 262 264 262 263 263 259 261 265 269 274 282 287 289 289 288 285 283
182 184 182 179 177 176 173 178 180 182 185 190 192 195 194 191 194 197 203 208 214 221 227 236 243 249 253 258 260 257 257 258 260 263 266 272 278 283 286 286 286 285 285
185 182 180 180 178 174 173 175 179 184 188 192 196 199 199 197 196 197 204 211 218 224 229 232 236 239 245 250 256 257 256 260 262 265 267 271 275 280 283 285 285 286 285
181 172 174 177 173 171 171 173 175 181 184 189 197 201 201 201 201 204 206 213 223 228 231 235 241 243 249 252 257 262 263 264 266 270 272 271 272 276 281 284 285 285 286
164 160 167 171 168 168 167 167 170 176 182 192 199 204 208 210 210 208 210 220 229 228 225 227 232 243 252 257 263 267 269 272 273 274 275 273 272 273 276 281 284 285 286
156 152 154 157 163 164 158 159 162 169 178 189 194 200 208 213 214 209 215 227 231 225 225 232 236 237 258 268 272 274 271 269 272 276 274 275 275 273 273 279 283 284 286
139 139 142 147 152 149 140 134 128 130 146 163 176 192 199 205 210 209 217 230 228 220 239 244 254 254 256 269 286 288 279 272 270 268 273 280 281 280 279 279 281 283 286
123 129 135 140 146 143 140 141 138 145 142 135 164 187 197 203 208 206 212 223 220 221 240 249 257 274 278 277 309 306 290 279 278 272 276 281 285 289 290 288 285 283 284
133 132 134 140 145 146 143 139 137 136 132 129 131 146 190 205 215 212 210 218 224 232 263 265 248 269 277 238 245 314 317 323 324 290 283 277 278 294 300 303 301 294 287
141 145 142 140 139 138 132 118 99 81 68 64 66 57 283 215 214 213 213 210 217 211 249 261 249 241 268 275 198 218 278 284 302 283 276 273 283 287 290 296 297 296 294
155 144 135 135 133 134 134 136 140 144 156 183 181 202 322 322 208 208 201 195 204 213 248 262 246 231 236 267 265 229 231 244 274 299 287 283 279 276 276 282 284 286 286
148 142 138 131 130 133 133 139 138 138 148 138 114 101 28 359 349 270 196 191 229 251 264 271 275 254 231 242 248 250 256 253 234 260 286 285 281 264 264 266 273 277 278
143 141 141 136 135 136 134 137 141 145 145 137 134 132 84 353 348 347 314 252 269 269 267 267 264 262 253 252 252 244 244 252 256 253 276 289 288 279 263 257 262 268 272
Height
1547 1548 1550 1552 1553 1554 1555 1556 1556 1557 1557 1557 1557 1557 1557 1557 1556 1556 1556 1556 1556 1556 1556 1556 1555 1555 1555 1555 1555 1554 1554 1554 1554 1554 1553 1553 1553 1553 1553 1553 1553 1553 1553
1546 1547 1550 1551 1553 1554 1555 1556 1556 1557 1557 1558 1558 1558 1558 1558 1557 1557 1557 1557 1556 1556 1556 1556 1556 1556 1555 1555 1555 1555 1555 1554 1554 1554 1554 1554 1554 1554 1553 1553 1553 1553 1553
1546 1547 1549 1551 1552 1554 1555 1556 1556 1557 1558 1558 1558 1558 1558 1558 1558 1558 1557 1557 1557 1557 1556 1556 1556 1556 1556 1556 1556 1556 1556 1555 1555 1555 1555 1555 1555 1555 1554 1554 1553 1553 1553
1545 1547 1548 1550 1552 1553 1555 1555 1556 1557 1558 1558 1559 1559 1559 1559 1559 1558 1558 1558 1557 1557 1557 1557 1557 1557 1556 1556 1556 1556 1556 1556 1556 1556 1556 1556 1556 1556 1555 1554 1554 1553 1553
1545 1546 1548 1550 1551 1553 1554 1555 1556 1557 1558 1558 1559 1559 1559 1559 1559 1559 1559 1558 1558 1558 1558 1558 1557 1557 1557 1557 1557 1557 1557 1556 1557 1557 1557 1557 1556 1556 1556 1555 1554 1554 1553
1544 1546 1547 1549 1551 1552 1554 1555 1556 1557 1558 1558 1559 1560 1560 1560 1560 1559 1559 1559 1559 1559 1559 1558 1558 1558 1558 1558 1558 1557 1557 1557 1557 1558 1558 1557 1557 1557 1556 1555 1555 1554 1554
1544 1545 1547 1548 1550 1551 1553 1554 1555 1557 1558 1558 1559 1560 1560 1560 1560 1560 1560 1560 1560 1560 1560 1559 1559 1559 1559 1559 1559 1558 1558 1558 1558 1558 1558 1558 1558 1557 1557 1556 1556 1555 1554
1543 1544 1546 1548 1549 1551 1552 1554 1555 1556 1557 1558 1559 1560 1560 1560 1560 1560 1560 1560 1561 1560 1560 1560 1560 1560 1560 1560 1559 1559 1559 1559 1559 1559 1559 1559 1558 1558 1557 1557 1556 1555 1555
1543 1544 1545 1546 1548 1550 1551 1553 1554 1556 1557 1558 1559 1559 1560 1560 1560 1561 1561 1561 1561 1561 1561 1561 1561 1561 1560 1560 1560 1560 1560 1560 1560 1560 1559 1559 1559 1558 1557 1557 1556 1555 1555
1542 1543 1544 1545 1547 1549 1550 1552 1553 1555 1556 1557 1558 1559 1559 1560 1560 1561 1561 1561 1561 1561 1561 1561 1561 1561 1561 1561 1561 1561 1560 1560 1560 1560 1559 1559 1558 1558 1557 1556 1556 1555 1554
1540 1541 1543 1544 1546 1547 1549 1551 1553 1554 1555 1557 1558 1558 1559 1560 1560 1560 1561 1561 1561 1561 1561 1561 1561 1561 1561 1561 1561 1560 1560 1560 1559 1559 1559 1558 1558 1557 1556 1556 1555 1554 1553
1537 1539 1541 1542 1544 1546 1548 1550 1551 1553 1554 1556 1557 1558 1558 1559 1559 1560 1560 1560 1560 1561 1561 1561 1561 1561 1560 1560 1560 1560 1559 1559 1559 1558 1558 1557 1556 1556 1555 1554 1554 1553 1552
1534 1536 1538 1541 1543 1544 1546 1548 1550 1552 1553 1554 1555 1556 1557 1558 1558 1559 1559 1559 1560 1560 1560 1560 1560 1559 1559 1559 1559 1558 1558 1557 1557 1556 1556 1555 1554 1553 1553 1552 1552 1551 1550
1532 1534 1536 1538 1541 1543 1545 1546 1548 1550 1552 1553 1554 1555 1556 1557 1557 1557 1558 1558 1558 1558 1559 1558 1558 1558 1557 1557 1556 1556 1555 1555 1554 1553 1553 1552 1551 1551 1550 1549 1548 1548 1547
1529 1531 1534 1536 1538 1541 1543 1545 1547 1549 1550 1552 1553 1554 1554 1555 1556 1556 1556 1557 1557 1557 1557 1557 1556 1556 1555 1554 1554 1553 1552 1552 1551 1550 1549 1549 1548 1547 1546 1545 1544 1544 1543
1526 1528 1531 1534 1536 1539 1541 1543 1545 1547 1549 1550 1551 1552 1553 1553 1554 1554 1555 1555 1555 1555 1555 1554 1554 1553 1552 1552 1551 1550 1549 1548 1547 1546 1545 1544 1543 1542 1541 1540 1539 1539 1538
1523 1525 1528 1531 1534 1537 1539 1541 1544 1545 1547 1548 1549 1550 1551 1552 1552 1553 1553 1553 1553 1553 1553 1552 1551 1551 1550 1549 1548 1547 1546 1544 1543 1542 1540 1539 1538 1537 1536 1535 1534 1533 1532
1520 1523 1526 1529 1532 1535 1537 1540 1542 1544 1545 1546 1548 1549 1549 1550 1550 1550 1551 1551 1551 1551 1550 1549 1549 1548 1547 1545 1544 1543 1541 1540 1538 1537 1535 1534 1533 1531 1530 1529 1528 1527 1526
1518 1521 1524 1527 1530 1533 1536 1538 1540 1542 1543 1545 1546 1546 1547 1548 1548 1548 1548 1548 1548 1548 1547 1546 1545 1544 1543 1541 1540 1538 1536 1535 1533 1532 1530 1529 1528 1526 1525 1524 1523 1522 1521
1516 1519 1522 1525 1528 1531 1534 1537 1538 1540 1541 1543 1544 1544 1545 1545 1546 1546 1546 1545 1545 1544 1544 1543 1542 1541 1539 1537 1535 1533 1531 1529 1528 1527 1526 1525 1524 1522 1521 1520 1519 1517 1516
1514 1517 1520 1523 1526 1529 1532 1534 1536 1538 1539 1541 1541 1542 1543 1543 1543 1543 1542 1542 1541 1541 1540 1539 1538 1536 1535 1534 1531 1527 1525 1524 1522 1521 1521 1520 1520 1518 1517 1515 1514 1512 1510
1513 1516 1518 1521 1524 1527 1530 1532 1534 1536 1537 1538 1539 1539 1540 1540 1540 1539 1539 1539 1538 1537 1536 1535 1534 1532 1531 1530 1528 1524 1519 1517 1516 1516 1516 1514 1514 1513 1512 1510 1508 1506 1504
1511 1514 1517 1520 1522 1525 1528 1530 1532 1534 1535 1536 1537 1537 1537 1537 1537 1536 1536 1535 1535 1534 1533 1532 1531 1529 1528 1527 1526 1525 1521 1515 1511 1508 1508 1508 1507 1507 1505 1504 1502 1500 1498
1510 1513 1516 1518 1521 1524 1526 1528 1530 1531 1532 1533 1534 1534 1534 1534 1534 1533 1533 1532 1532 1531 1530 1529 1527 1526 1524 1523 1522 1520 1519 1516 1511 1503 1501 1501 1501 1499 1498 1496 1494 1492 1490
1509 1512 1514 1517 1520 1522 1524 1526 1528 1529 1531 1531 1532 1532 1532 1532 1531 1531 1530 1530 1529 1528 1526 1525 1524 1522 1520 1519 1517 1515 1513 1511 1508 1503 1494 1491 1491 1491 1490 1488 1486 1484 1482
1508 1511 1513 1516 1518 1521 1523 1525 1526 1528 1528 1529 1529 1529 1529 1529 1529 1528 1527 1527 1526 1524 1523 1521 1520 1518 1516 1514 1512 1510 1508 1505 1502 1498 1491 1485 1481 1480 1480 1479 1477 1475 1473